[[{"header":{"parameterUnit":"m.s-1","parameterCategory":1,"la1":30.2991,"la2":30.254,"lo1":-89.0895,"lo2":-89.0444,"dy":0.0017,"dx":0.0017,"nx":28,"ny":28,"refTime":"2024-03-17T21:00:00:Z","depth":0,"parameterNumber":2,"parameterNumberName":"U-component_of_WINDS"},"data":[0,0,0,0,0,0,0,0,0,0,0,0,0,0,0,0,0,0,0,0,0,0,0,0,0,0,0,0,0,0,0,0,0,0,0,0,0,0,0,0,0,0,0,0,0,0,0,0,0,0,0,0,0,0,0,0,0,0,3.3309,3.331,0,3.3419,3.342,3.3422,3.3443,3.3442,3.3441,3.3441,3.3554,3.3558,3.3562,0,0,0,0,0,0,0,0,0,0,0,0,0,3.3119,3.3122,3.3309,3.331,3.3311,3.3419,3.342,3.3422,3.3443,3.3442,3.3441,3.344,3.3553,3.3557,3.3562,0,0,0,0,0,0,0,0,0,0,0,0,0,3.3212,3.3123,3.3308,3.3335,3.3338,3.3418,3.342,3.3422,3.3443,3.3442,3.3441,3.344,3.3551,3.3557,3.3563,3.3624,0,0,3.358,3.3583,0,0,0,0,0,0,0,0,3.3207,3.3219,3.333,3.3333,3.3337,3.3416,3.3395,3.349,3.3444,3.3404,3.344,3.3439,3.3509,3.3518,3.3542,3.3629,3.3634,3.3581,3.3584,3.3587,3.3588,0,0,0,0,0,0,0,3.3201,3.3215,3.3352,3.3331,3.3336,3.3342,3.3354,3.3413,3.3462,3.3407,3.3409,3.3422,3.3511,3.3536,3.3545,3.3636,3.3581,3.3586,3.3589,3.3591,3.3783,3.3784,0,0,0,0,0,0,3.3189,3.3209,3.3349,3.3356,3.3268,3.3347,3.336,3.3392,3.3462,3.3471,3.3423,3.3422,3.3527,3.3538,3.3549,3.3627,3.3587,3.3592,3.3595,3.3781,3.3783,3.3785,0,0,0,0,0,0,3.3185,3.3201,3.3344,3.3283,3.3302,3.3351,3.3387,3.3395,3.342,3.3474,3.3483,3.3439,3.3527,3.3541,3.3606,3.3631,3.3595,3.36,3.3779,3.3782,3.3784,3.3783,0,0,0,0,0,0,3.3179,3.32,3.3223,3.3283,3.3305,3.3399,3.3389,3.3398,3.343,3.343,3.3492,3.35,3.3527,3.3597,3.3612,3.3639,3.3604,3.3777,3.378,3.3783,3.3781,3.3785,3.3789,0,0,0,0,0,3.3173,3.3218,3.3224,3.3241,3.3335,3.34,3.3412,3.3441,3.3432,3.3456,3.3491,3.3498,3.3626,3.3604,3.362,3.3649,3.3776,3.3779,3.3783,3.3779,3.3784,3.3789,0,0,0,0,0,0,3.3158,3.3226,3.3233,3.3299,3.3344,3.3403,3.3434,3.3445,3.3494,3.3492,3.3526,3.354,3.3604,3.3633,3.3607,3.3714,3.3701,3.3708,3.3692,3.3697,3.3701,3.3693,3.3609,0,0,0,0,0,3.3163,3.321,3.3267,3.3319,3.3341,3.3384,3.3414,3.3433,3.348,3.3499,3.3538,3.3585,3.3636,3.3668,3.3718,3.3786,3.38,3.3814,3.3818,3.3821,3.3826,3.3867,3.3874,3.3797,3.3797,3.3797,0,0,3.3172,3.3215,3.3243,3.3318,3.3354,3.3403,3.34,3.3451,3.3488,3.3507,3.3571,3.3602,3.3656,3.3723,3.3755,3.375,3.3851,3.3825,3.3827,3.3832,3.3871,3.3879,3.3885,3.3799,3.3799,3.3799,0,0,3.3215,3.3252,3.3301,3.3338,3.3394,3.3423,3.3434,3.3493,3.3515,3.358,3.3596,3.3641,3.3727,3.3766,3.3796,3.3857,3.3867,3.3873,3.3892,3.3931,3.3937,3.3943,3.3966,3.3974,3.3878,3.3878,3.3878,0,3.322,3.3294,3.3324,3.3376,3.3409,3.3429,3.348,3.3515,3.3584,3.3607,3.36,3.3711,3.3749,3.3826,3.3841,3.3865,3.3881,3.3865,3.3934,3.394,3.3946,3.3968,3.3976,3.3879,3.3878,3.3878,3.3878,0,3.3298,3.3349,3.3382,3.3449,3.3486,3.3536,3.3576,3.361,3.3627,3.3657,3.3724,3.3771,3.3831,3.3851,3.3867,3.3932,3.3927,3.3927,3.3914,3.3953,3.3975,3.3983,3.3879,3.3879,3.3879,3.3879,0,0,3.3332,3.3418,3.3429,3.3461,3.3526,3.3566,3.3619,3.3678,3.3708,3.3756,3.3801,3.3876,3.3877,3.3912,3.3933,3.3967,3.4014,3.3963,3.3965,3.3972,3.4091,3.4091,3.41,3.4021,3.4023,3.4024,3.4087,0,3.3384,3.3477,3.3508,3.3587,3.3635,3.3657,3.3703,3.3748,3.3779,3.3825,3.3859,3.3911,3.3908,3.3929,3.3964,3.4001,3.4039,3.3997,3.4065,3.4067,3.4051,3.4111,3.4111,3.4167,3.4095,3.4097,3.4098,0,3.3455,3.3505,3.3588,3.3649,3.3671,3.3711,3.377,3.3814,3.3866,3.3886,3.3927,3.3946,3.4004,3.3988,3.4069,3.404,3.407,3.4093,3.4096,3.4103,3.4085,3.4121,3.4185,3.4194,3.4111,3.411,3.4109,0,3.3473,3.3561,3.3623,3.365,3.3722,3.375,3.3782,3.3833,3.3868,3.3919,3.3943,3.4,3.4031,3.4076,3.4111,3.4096,3.4189,3.4176,3.4208,3.4207,3.4226,3.4225,3.4297,3.4245,3.4245,3.4245,3.4245,0,3.3527,3.3577,3.3633,3.3671,3.3729,3.3765,3.3821,3.3854,3.3901,3.3946,3.3969,3.4012,3.4055,3.4104,3.4132,3.4196,3.4209,3.4228,3.4235,3.4226,3.4224,3.4246,3.4243,3.4247,3.4247,3.4246,3.4246,0,3.3557,3.3595,3.3665,3.3728,3.3745,3.3785,3.384,3.3879,3.3911,3.3969,3.3985,3.4035,3.4094,3.4134,3.4209,3.4228,3.4298,3.4303,3.428,3.4283,3.4313,3.431,3.4403,3.4417,3.4355,3.4356,3.4356,0,3.3588,3.3628,3.3696,3.3728,3.376,3.3812,3.3848,3.3885,3.3922,3.3987,3.4018,3.4079,3.413,3.4224,3.4268,3.4326,3.4334,3.4363,3.4343,3.4334,3.4336,3.4333,3.4338,3.4365,3.4366,3.4366,3.4367,0,3.3641,3.3659,3.3709,3.3768,3.381,3.3858,3.3905,3.3931,3.3977,3.4018,3.4079,3.4118,3.4196,3.4257,3.432,3.4354,3.4369,3.4373,3.4383,3.4375,3.436,3.4369,3.4289,3.437,3.437,3.4369,3.4369,3.4369,3.3673,3.371,3.3765,3.3821,3.3861,3.3906,3.3946,3.3984,3.4035,3.4102,3.4121,3.4185,3.424,3.4326,3.4362,3.4413,3.441,3.4425,3.4429,3.4433,3.4433,3.4352,3.4425,3.4425,3.4425,3.4425,3.4425,0,3.3728,3.3764,3.3816,3.3883,3.3928,3.3938,3.3992,3.4029,3.4085,3.4135,3.4185,3.4256,3.4316,3.4366,3.4428,3.446,3.4468,3.4475,3.4473,3.4481,3.4432,3.4417,3.4467,3.4467,3.4467,3.4467,3.4467,3.4467,3.3761,3.3825,3.385,3.3935,3.3971,3.4034,3.4065,3.4107,3.4147,3.4225,3.4275,3.4307,3.4358,3.4424,3.448,3.4493,3.4516,3.4521,3.4536,3.4489,3.4484,3.4479,3.4465,3.4525,3.4525,3.4581,3.4581,3.4582]},{"header":{"parameterUnit":"m.s-1","parameterCategory":1,"la1":30.2991,"la2":30.254,"lo1":-89.0895,"lo2":-89.0444,"dy":0.0017,"dx":0.0017,"nx":28,"ny":28,"refTime":"2024-03-17T21:00:00:Z","depth":0,"parameterNumber":3,"parameterNumberName":"V-component_of_WINDS"},"data":[0,0,0,0,0,0,0,0,0,0,0,0,0,0,0,0,0,0,0,0,0,0,0,0,0,0,0,0,0,0,0,0,0,0,0,0,0,0,0,0,0,0,0,0,0,0,0,0,0,0,0,0,0,0,0,0,0,0,-7.3199,-7.32,0,-7.3253,-7.3254,-7.3254,-7.3208,-7.3206,-7.3205,-7.3203,-7.3255,-7.3258,-7.3261,0,0,0,0,0,0,0,0,0,0,0,0,0,-7.3053,-7.3056,-7.3199,-7.32,-7.32,-7.3253,-7.3254,-7.3255,-7.3209,-7.3206,-7.3204,-7.3202,-7.3254,-7.3257,-7.3261,0,0,0,0,0,0,0,0,0,0,0,0,0,-7.3113,-7.3057,-7.3199,-7.3184,-7.3183,-7.3253,-7.3254,-7.3255,-7.3209,-7.3206,-7.3203,-7.3201,-7.3252,-7.3257,-7.3262,-7.3348,0,0,-7.3276,-7.3278,0,0,0,0,0,0,0,0,-7.311,-7.3118,-7.3185,-7.3185,-7.3184,-7.3221,-7.3221,-7.3286,-7.321,-7.3199,-7.3203,-7.3199,-7.3246,-7.3251,-7.3267,-7.335,-7.3353,-7.3277,-7.3279,-7.3281,-7.3283,0,0,0,0,0,0,0,-7.3105,-7.3116,-7.322,-7.3186,-7.3186,-7.3174,-7.3179,-7.3233,-7.3238,-7.32,-7.3197,-7.3204,-7.3245,-7.3263,-7.3268,-7.3353,-7.3276,-7.3281,-7.3284,-7.3285,-7.3512,-7.3515,0,0,0,0,0,0,-7.3103,-7.3113,-7.3218,-7.3222,-7.3139,-7.3179,-7.3185,-7.3212,-7.3237,-7.3238,-7.3206,-7.3202,-7.3256,-7.3262,-7.327,-7.3373,-7.3281,-7.3286,-7.3289,-7.3509,-7.3513,-7.3516,0,0,0,0,0,0,-7.31,-7.3113,-7.3216,-7.3166,-7.3179,-7.3184,-7.3216,-7.3215,-7.3233,-7.3242,-7.3242,-7.3224,-7.3254,-7.3263,-7.3329,-7.3374,-7.3288,-7.3292,-7.3505,-7.351,-7.3514,-7.3581,0,0,0,0,0,0,-7.3096,-7.3112,-7.3146,-7.3168,-7.3182,-7.3276,-7.3218,-7.3218,-7.3241,-7.3236,-7.3258,-7.3259,-7.3252,-7.3323,-7.3334,-7.3379,-7.3296,-7.3501,-7.3507,-7.3513,-7.3575,-7.3587,-7.3598,0,0,0,0,0,-7.3091,-7.3161,-7.3147,-7.3161,-7.3223,-7.3279,-7.3287,-7.3278,-7.3245,-7.3278,-7.3285,-7.3259,-7.3368,-7.333,-7.3342,-7.339,-7.3498,-7.3506,-7.3513,-7.3569,-7.3585,-7.3598,0,0,0,0,0,0,-7.3142,-7.3163,-7.3149,-7.3228,-7.3252,-7.3271,-7.3312,-7.3294,-7.3328,-7.3321,-7.3308,-7.3313,-7.3384,-7.3393,-7.3351,-7.3475,-7.3428,-7.3438,-7.3467,-7.3481,-7.3493,-7.3489,-7.33,0,0,0,0,0,-7.3163,-7.3207,-7.3223,-7.3291,-7.3304,-7.3307,-7.333,-7.3322,-7.3346,-7.3356,-7.3367,-7.339,-7.343,-7.3456,-7.3493,-7.3576,-7.3581,-7.3615,-7.3627,-7.3636,-7.3645,-7.3691,-7.3707,-7.354,-7.354,-7.354,0,0,-7.3205,-7.3222,-7.3251,-7.3302,-7.3319,-7.3365,-7.3315,-7.3365,-7.3399,-7.3363,-7.3427,-7.3436,-7.3462,-7.3538,-7.3571,-7.3547,-7.3692,-7.3646,-7.3653,-7.3656,-7.37,-7.3716,-7.373,-7.3545,-7.3544,-7.3543,0,0,-7.3306,-7.3323,-7.3383,-7.3403,-7.3431,-7.3433,-7.3447,-7.347,-7.3475,-7.354,-7.3514,-7.3554,-7.3622,-7.3642,-7.3661,-7.3772,-7.375,-7.3784,-7.3845,-7.389,-7.3904,-7.3915,-7.3955,-7.397,-7.3793,-7.3793,-7.3793,0,-7.3355,-7.3423,-7.3415,-7.3468,-7.3492,-7.3463,-7.3524,-7.3542,-7.3581,-7.3598,-7.3571,-7.3658,-7.3673,-7.3753,-7.3781,-7.3797,-7.3813,-7.3781,-7.3903,-7.3914,-7.3925,-7.3963,-7.3978,-7.3797,-7.3797,-7.3796,-7.3796,0,-7.3483,-7.3531,-7.3575,-7.3616,-7.3644,-7.37,-7.37,-7.373,-7.372,-7.3724,-7.3791,-7.3809,-7.3849,-7.3868,-7.3857,-7.3948,-7.3932,-7.3905,-7.3856,-7.3945,-7.3981,-7.3995,-7.3803,-7.3802,-7.3801,-7.3799,0,0,-7.3615,-7.3652,-7.3669,-7.3688,-7.3718,-7.3755,-7.381,-7.3852,-7.3878,-7.3906,-7.3952,-7.4012,-7.3987,-7.4009,-7.4001,-7.404,-7.4129,-7.4007,-7.4008,-7.403,-7.423,-7.4251,-7.4268,-7.4114,-7.4117,-7.4119,-7.4228,0,-7.3717,-7.3815,-7.381,-7.3901,-7.3947,-7.3922,-7.397,-7.3994,-7.4,-7.4038,-7.4044,-7.4088,-7.4051,-7.4064,-7.4102,-7.411,-7.4169,-7.4102,-7.4157,-7.4159,-7.4151,-7.4286,-7.4308,-7.441,-7.4242,-7.4244,-7.4246,0,-7.385,-7.3885,-7.3981,-7.4007,-7.4026,-7.407,-7.4108,-7.4146,-7.4173,-7.4174,-7.42,-7.4186,-7.4242,-7.4193,-7.427,-7.4225,-7.4247,-7.4254,-7.4258,-7.4262,-7.4207,-7.4295,-7.4442,-7.4457,-7.4268,-7.4266,-7.4264,0,-7.3937,-7.4009,-7.4076,-7.4093,-7.4125,-7.4156,-7.4171,-7.4195,-7.4221,-7.4255,-7.4271,-7.4311,-7.4332,-7.4362,-7.4359,-7.4324,-7.4438,-7.4388,-7.444,-7.4441,-7.4465,-7.4463,-7.4618,-7.448,-7.4479,-7.4479,-7.4479,0,-7.4052,-7.4112,-7.4116,-7.4158,-7.4224,-7.4219,-7.4284,-7.4295,-7.4318,-7.4361,-7.4341,-7.4381,-7.4375,-7.4415,-7.4413,-7.4478,-7.4487,-7.449,-7.4489,-7.4492,-7.4491,-7.4506,-7.4498,-7.4483,-7.4482,-7.4481,-7.4481,0,-7.4161,-7.4166,-7.4238,-7.4264,-7.4271,-7.432,-7.4341,-7.438,-7.4385,-7.444,-7.4452,-7.446,-7.4507,-7.4508,-7.456,-7.4559,-7.4638,-7.4628,-7.4629,-7.4627,-7.468,-7.4675,-7.4849,-7.4871,-7.4718,-7.472,-7.4721,0,-7.4234,-7.428,-7.4311,-7.434,-7.4357,-7.4402,-7.4429,-7.4426,-7.4455,-7.449,-7.4525,-7.4571,-7.4607,-7.4683,-7.4693,-7.4733,-7.4725,-7.4783,-7.4731,-7.4733,-7.4726,-7.4723,-7.4728,-7.4793,-7.4795,-7.4796,-7.4797,0,-7.4363,-7.4364,-7.4405,-7.4448,-7.4481,-7.4514,-7.4544,-7.4568,-7.4568,-7.4602,-7.4651,-7.4679,-7.4735,-7.478,-7.482,-7.4834,-7.4816,-7.4814,-7.4828,-7.4832,-7.483,-7.4832,-7.4657,-7.481,-7.4808,-7.4807,-7.4807,-7.4806,-7.4456,-7.4497,-7.4526,-7.4573,-7.4596,-7.4625,-7.4664,-7.4675,-7.4716,-7.4763,-7.4758,-7.4812,-7.4839,-7.4891,-7.4909,-7.4951,-7.4931,-7.4951,-7.4956,-7.4961,-7.4967,-7.4824,-7.4958,-7.4958,-7.4957,-7.4957,-7.4957,0,-7.4585,-7.4603,-7.4647,-7.4691,-7.4728,-7.471,-7.4743,-7.4775,-7.4824,-7.4851,-7.4888,-7.4945,-7.4989,-7.5004,-7.5047,-7.5078,-7.5071,-7.5089,-7.5087,-7.509,-7.4983,-7.4966,-7.5094,-7.5094,-7.5094,-7.5094,-7.5094,-7.5094,-7.4656,-7.4724,-7.4729,-7.4809,-7.4826,-7.4881,-7.4901,-7.4928,-7.4951,-7.5015,-7.5053,-7.5063,-7.5085,-7.513,-7.5171,-7.5174,-7.519,-7.5212,-7.5212,-7.5111,-7.5098,-7.5084,-7.5069,-7.5216,-7.5216,-7.5316,-7.5317,-7.5318]}]]